Date String (YYYY-MM-DD hh:mm:ss) UTC,Instrument flags,absolute air pressure of the measurement (hPa),sample flow rate (lpm),inlet stack bypass flow (lpm),air temperature of the measurement (°C),ambient temperature measured by the external sensor (°C),aerosol sample conditioner tube jacket temperature (°C),OPC LED temperature (°C),internal box temperature (°C),relative humidity of the measurement (%),span deviation,mass concentration of particles derived from Lorenz-Mie calculation of OPC scattering (μg/m³),mass concentration of particles derived from Lorenz-Mie calculation of OPC scattering (μg/m³),mass concentration of particles derived from Lorenz-Mie calculation of OPC scattering (μg/m³)
DateTimeUTC,F1_M11,P_M11,Q1_M11,Q2_M11,T1_M11,T2_M11,T3_M11,T4_M11,T5_M11,U1_M11,ZSPAN_M11,X0_M11,X2_M11,X1_M11
2023-06-08 16:00:00,SystemResetWarning,0830.7,5.01,000.00,029.6,026.7,000.0,038.2,030.9,24.9,0000.0,0005.34,0002.59,0002.09
2023-06-08 16:01:00,SystemResetWarning,0830.7,5.01,000.00,029.6,027.0,000.0,038.2,030.9,24.5,0000.0,0005.73,0002.68,0002.13
2023-06-08 16:02:00,SystemResetWarning,0830.6,5.00,000.00,029.6,027.2,000.0,038.2,031.0,25.0,0000.0,0006.44,0002.75,0002.15
2023-06-08 16:03:00,SystemResetWarning,0830.7,5.01,000.00,029.6,027.4,000.0,038.2,031.0,24.5,0000.0,0006.57,0002.80,0002.18
2023-06-08 16:04:00,SystemResetWarning,0830.7,5.00,000.00,029.6,027.6,000.0,038.2,031.1,24.1,0000.0,0006.58,0002.82,0002.19
2023-06-08 16:05:00,SystemResetWarning,0830.7,5.00,000.00,029.6,027.8,000.0,038.2,031.1,25.0,0000.0,0006.46,0002.83,0002.21
2023-06-08 16:06:00,SystemResetWarning,0830.6,5.00,000.00,029.6,027.9,000.0,038.2,031.1,24.9,0000.0,0006.16,0002.80,0002.22
2023-06-08 16:07:00,SystemResetWarning,0830.6,4.99,000.00,029.6,028.0,000.0,038.2,031.1,24.3,0000.0,0007.02,0002.78,0002.22
2023-06-08 16:08:00,SystemResetWarning,0830.7,5.00,000.00,029.7,028.1,000.0,038.2,031.2,25.3,0000.0,0007.61,0002.74,0002.23
2023-06-08 16:09:00,SystemResetWarning,0830.6,5.00,000.00,029.7,028.2,000.0,038.2,031.2,24.7,0000.0,0007.74,0002.74,0002.23
2023-06-08 16:10:00,SystemResetWarning,0830.7,4.98,000.00,029.7,028.2,000.0,038.2,031.2,25.5,0000.0,0007.41,0002.73,0002.23
2023-06-08 16:11:00,SystemResetWarning,0830.7,5.00,000.00,029.7,028.3,000.0,038.2,031.2,25.9,0000.0,0007.18,0002.78,0002.24
2023-06-08 16:12:00,SystemResetWarning,0830.6,4.99,000.00,029.8,027.6,000.0,038.2,031.3,25.7,0000.0,0007.19,0002.77,0002.23
2023-06-08 16:13:00,SystemResetWarning,0830.6,5.00,000.00,029.8,025.5,000.0,038.2,031.2,24.5,0000.0,0006.62,0002.78,0002.25
2023-06-08 16:14:00,SystemResetWarning,0830.6,5.01,000.00,029.7,024.6,000.0,038.1,031.2,24.8,0000.0,0006.83,0002.76,0002.25
2023-06-08 16:15:00,SystemResetWarning,0830.7,5.01,000.00,029.7,024.9,000.0,038.1,030.9,24.9,0000.0,0007.52,0002.78,0002.25
2023-06-08 16:16:00,SystemResetWarning,0830.6,5.00,000.00,029.5,025.3,000.0,038.1,030.7,25.1,0000.0,0007.51,0002.77,0002.24
2023-06-08 16:17:00,SystemResetWarning,0830.6,5.00,000.00,029.5,025.7,000.0,038.1,030.7,25.1,0000.0,0007.53,0002.80,0002.25
2023-06-08 16:18:00,SystemResetWarning,0830.7,5.01,000.00,029.4,026.1,000.0,038.1,030.7,25.4,0000.0,0006.99,0002.81,0002.26
2023-06-08 16:19:00,SystemResetWarning,0830.7,4.99,000.00,029.4,026.5,000.0,038.0,030.7,25.5,0000.0,0006.70,0002.81,0002.25
2023-06-08 16:20:00,SystemResetWarning,0830.7,5.00,000.00,029.4,026.8,000.0,038.0,030.8,25.4,0000.0,0006.27,0002.81,0002.26
2023-06-08 16:21:00,SystemResetWarning,0830.7,5.00,000.00,029.4,027.1,000.0,038.0,030.8,25.6,0000.0,0006.42,0002.82,0002.26
2023-06-08 16:22:00,SystemResetWarning,0830.7,5.00,000.00,029.4,027.3,000.0,038.0,030.8,26.6,0000.0,0006.40,0002.83,0002.27
2023-06-08 16:23:00,SystemResetWarning,0830.7,5.00,000.00,029.4,027.5,000.0,038.0,030.9,26.6,0000.0,0006.47,0002.88,0002.30
2023-06-08 16:24:00,SystemResetWarning,0830.7,5.01,000.00,029.4,027.6,000.0,038.0,030.9,26.2,0000.0,0006.63,0002.93,0002.32
2023-06-08 16:25:00,SystemResetWarning,0830.8,4.99,000.00,029.4,027.7,000.0,038.0,031.0,26.0,0000.0,0006.67,0002.99,0002.35
2023-06-08 16:26:00,SystemResetWarning,0830.8,4.99,000.00,029.5,027.8,000.0,038.0,031.0,25.7,0000.0,0005.82,0003.01,0002.36
2023-06-08 16:27:00,SystemResetWarning,0830.8,5.00,000.00,029.5,027.9,000.0,038.0,031.0,25.7,0000.0,0006.58,0003.02,0002.38
2023-06-08 16:28:00,SystemResetWarning,0830.8,5.01,000.00,029.5,028.0,000.0,038.0,031.0,25.6,0000.0,0006.61,0003.06,0002.41
2023-06-08 16:29:00,SystemResetWarning,0830.8,5.00,000.00,029.5,028.0,000.0,038.0,031.1,25.5,0000.0,0006.82,0003.11,0002.43
2023-06-08 16:30:00,SystemResetWarning,0830.8,5.00,000.00,029.6,028.1,000.0,038.1,031.1,25.4,0000.0,0006.67,0003.17,0002.46
2023-06-08 16:31:00,SystemResetWarning,0830.8,4.99,000.00,029.6,028.1,000.0,038.1,031.1,25.9,0000.0,0006.73,0003.25,0002.48
2023-06-08 16:32:00,SystemResetWarning,0830.8,5.00,000.00,029.6,028.2,000.0,038.1,031.2,25.0,0000.0,0006.71,0003.28,0002.52
2023-06-08 16:33:00,SystemResetWarning,0830.8,5.01,000.00,029.6,027.9,000.0,038.1,031.2,25.1,0000.0,0007.45,0003.30,0002.53
2023-06-08 16:34:00,SystemResetWarning,0830.8,4.99,000.00,029.7,026.2,000.0,038.1,031.2,25.3,0000.0,0007.65,0003.29,0002.54
2023-06-08 16:35:00,SystemResetWarning,0830.7,5.01,000.00,029.6,025.5,000.0,038.0,031.2,25.4,0000.0,0007.69,0003.26,0002.53
2023-06-08 16:36:00,SystemResetWarning,0830.7,5.01,000.00,029.6,025.7,000.0,038.0,030.9,24.4,0000.0,0007.81,0003.24,0002.53
2023-06-08 16:37:00,SystemResetWarning,0830.7,4.99,000.00,029.5,026.0,000.0,038.0,030.7,24.6,0000.0,0008.33,0003.25,0002.54
2023-06-08 16:38:00,SystemResetWarning,0830.7,4.99,000.00,029.5,026.4,000.0,038.0,030.8,24.7,0000.0,0008.31,0003.27,0002.56
2023-06-08 16:39:00,SystemResetWarning,0830.7,5.02,000.00,029.4,026.7,000.0,038.0,030.8,24.8,0000.0,0009.19,0003.30,0002.57
2023-06-08 16:40:00,SystemResetWarning,0830.7,4.99,000.00,029.4,027.0,000.0,038.0,030.9,25.2,0000.0,0009.16,0003.31,0002.57
2023-06-08 16:41:00,SystemResetWarning,0830.7,4.98,000.00,029.4,027.2,000.0,038.0,030.9,25.7,0000.0,0009.07,0003.31,0002.56
2023-06-08 16:42:00,SystemResetWarning,0830.7,5.00,000.00,029.4,027.4,000.0,038.0,030.9,25.6,0000.0,0009.02,0003.30,0002.55
2023-06-08 16:43:00,SystemResetWarning,0830.7,5.01,000.00,029.5,027.6,000.0,038.0,030.9,26.0,0000.0,0009.03,0003.30,0002.56
2023-06-08 16:44:00,SystemResetWarning,0830.7,5.00,000.00,029.5,027.7,000.0,038.0,031.0,25.7,0000.0,0008.79,0003.32,0002.58
2023-06-08 16:45:00,SystemResetWarning,0830.8,5.00,000.00,029.5,027.8,000.0,038.0,031.0,25.9,0000.0,0008.59,0003.32,0002.58
2023-06-08 16:46:00,SystemResetWarning,0830.7,4.99,000.00,029.5,027.9,000.0,038.0,031.0,26.2,0000.0,0008.62,0003.32,0002.60
2023-06-08 16:47:00,SystemResetWarning,0830.7,4.99,000.00,029.5,028.0,000.0,038.0,031.1,25.6,0000.0,0008.71,0003.33,0002.60
2023-06-08 16:48:00,SystemResetWarning,0830.7,5.00,000.00,029.6,028.1,000.0,038.1,031.1,25.3,0000.0,0008.06,0003.33,0002.60
2023-06-08 16:49:00,SystemResetWarning,0830.7,5.00,000.00,029.6,027.0,000.0,038.0,031.2,25.5,0000.0,0008.13,0003.31,0002.59
2023-06-08 16:50:00,SystemResetWarning,0830.7,5.01,000.00,029.6,025.5,000.0,038.0,031.2,25.5,0000.0,0007.32,0003.32,0002.59
2023-06-08 16:51:00,SystemResetWarning,0830.7,5.01,000.00,029.6,025.6,000.0,038.0,031.1,25.5,0000.0,0007.34,0003.32,0002.61
2023-06-08 16:52:00,SystemResetWarning,0830.7,5.00,000.00,029.5,025.9,000.0,038.0,030.8,25.3,0000.0,0007.31,0003.30,0002.64
2023-06-08 16:53:00,SystemResetWarning,0830.7,4.99,000.00,029.4,026.2,000.0,038.0,030.7,25.5,0000.0,0007.27,0003.27,0002.67
2023-06-08 16:54:00,SystemResetWarning,0830.7,5.00,000.00,029.4,026.5,000.0,038.0,030.8,25.9,0000.0,0007.16,0003.26,0002.67
2023-06-08 16:55:00,SystemResetWarning,0830.7,5.00,000.00,029.4,026.8,000.0,038.0,030.8,26.5,0000.0,0006.88,0003.25,0002.66
2023-06-08 16:56:00,SystemResetWarning,0830.7,5.00,000.00,029.4,027.1,000.0,038.0,030.8,26.5,0000.0,0006.96,0003.25,0002.66
2023-06-08 16:57:00,SystemResetWarning,0830.7,5.00,000.00,029.4,027.3,000.0,038.0,030.8,26.2,0000.0,0006.88,0003.24,0002.66
2023-06-08 16:58:00,SystemResetWarning,0830.6,4.99,000.00,029.4,027.5,000.0,038.0,030.9,27.0,0000.0,0007.38,0003.25,0002.66
2023-06-08 16:59:00,SystemResetWarning,0830.7,4.99,000.00,029.4,027.7,000.0,038.0,030.9,26.3,0000.0,0007.93,0003.23,0002.67
